Orbital Elements at Epoch 2459000.5 (2020-May-31.0) TDB
Reference: JPL 19 (heliocentric ecliptic J2000)
Element | Value | Uncertainty (1-sigma) | Units |
e | .1501224553350845 | 5.0539e-08 | |
a | 3.086499763772691 | 2.589e-08 | au |
q | 2.623146840843976 | 1.6518e-07 | au |
i | 5.642633594509437 | 5.0027e-06 | deg |
node | 162.776145915075 | 5.2216e-05 | deg |
peri | 165.2096633122384 | 5.5398e-05 | deg |
M | 266.8183717698994 | 2.0249e-05 | deg |
tp | 2459513.155467038674 (2021-Oct-25.65546704) | 0.00011404 | TDB |
period | 1980.604671107318 5.42 | 2.4921e-05 6.823e-08 | d yr |
n | .1817626734156549 | 2.287e-09 | deg/d |
Q | 3.549852686701406 | 2.9777e-08 | au |
|
| | Orbit Determination Parameters
Additional Information
|